STARLINK-35252 (65850 NORAD) Tracking and Keplerian Element Data

This shows tracking and keplerian element data for the satellite.

Feedback or suggestion? Click here.




ElementValue
Catalog65850
NameSTARLINK-35252
Epoch Orbit1366
Epoch Day352.60934966
Epoch Year2025
RAAN105.3774
Inclination53.1601
Eccentricity9.7E-05
Argument of Perigee80.6052
Mean Anonmoly279.5058
Mean Motion15.301968
Decay Rate0.0002026
L11 65850U 25221AD 25352.60934966 .00020260 00000+0 69438-3 0 9998
L22 65850 53.1601 105.3774 0000970 80.6052 279.5058 15.30196800 13661



Live tracking and technical data element details for STARLINK-35252 (NORAD 65850). STARLINK-35252 can be tracked NOW for your location showing map with azimuth and elevation plus other details from your city location.







IsCatalogInMostPopularTable: catalog: 65850, numindb: 4
Update: records affected: 1



GetName: 65850 STARLINK-35252

Hit Count: updated at: Sun, 08 Feb 2026 08:02:17 GMT